📊 Raw Sensor Data
Showing records 40301 to 40325 of 84,961 total
| ID | Distance (ft) | Battery V | Battery A | Int Temp (°F) | Int Humid (%) | Ext Temp (°F) | Solar V | RSSI | SNR | Time Stamp |
|---|---|---|---|---|---|---|---|---|---|---|
| 44673 | 15.8 | 4.00 | 0 | 76 | 44 | 78 | 5.10 | -70 | 8 | 06/27/2025 09:15 AM |
| 44672 | 15.7 | 3.94 | 0 | 74 | 44 | 76 | 5.10 | -69 | 8 | 06/27/2025 09:00 AM |
| 44671 | 15.7 | 4.07 | 0 | 73 | 44 | 75 | 5.10 | -69 | 8 | 06/27/2025 08:45 AM |
| 44670 | 15.7 | 3.94 | 0 | 71 | 44 | 75 | 5.10 | -68 | 7 | 06/27/2025 08:30 AM |
| 44669 | 15.7 | 3.94 | 0 | 70 | 43 | 72 | 5.10 | -69 | 8 | 06/27/2025 08:15 AM |
| 44668 | 15.7 | 3.94 | 0 | 69 | 43 | 73 | 5.10 | -68 | 8 | 06/27/2025 08:00 AM |
| 44667 | 15.7 | 3.95 | 0 | 68 | 42 | 71 | 5.10 | -69 | 8 | 06/27/2025 07:45 AM |
| 44666 | 15.7 | 4.00 | 36 | 67 | 42 | 71 | 4.50 | -69 | 8 | 06/27/2025 07:30 AM |
| 44665 | 15.7 | 3.95 | 0 | 65 | 42 | 73 | 4.50 | -68 | 8 | 06/27/2025 07:15 AM |
| 44664 | 15.6 | 3.97 | 8 | 62 | 41 | 73 | 4.50 | -67 | 7 | 06/27/2025 07:00 AM |
| 44663 | 15.6 | 3.89 | 0 | 59 | 42 | 68 | 4.50 | -69 | 8 | 06/27/2025 06:45 AM |
| 44662 | 15.5 | 3.95 | 0 | 57 | 42 | 66 | 4.50 | -68 | 8 | 06/27/2025 06:30 AM |
| 44661 | 15.5 | 3.88 | 0 | 54 | 43 | 61 | 4.50 | -69 | 8 | 06/27/2025 06:15 AM |
| 44660 | 15.4 | 3.92 | -10 | 53 | 43 | 54 | 4.30 | -69 | 8 | 06/27/2025 05:45 AM |
| 44659 | 15.4 | 3.87 | -5 | 53 | 43 | 54 | 0.90 | -68 | 8 | 06/27/2025 05:30 AM |
| 44658 | 15.4 | 3.87 | -5 | 53 | 43 | 55 | 0.00 | -68 | 8 | 06/27/2025 05:15 AM |
| 44657 | 15.4 | 3.94 | -5 | 54 | 43 | 56 | 0.00 | -68 | 8 | 06/27/2025 05:00 AM |
| 44656 | 15.4 | 3.87 | -35 | 54 | 43 | 57 | 0.00 | -68 | 8 | 06/27/2025 04:45 AM |
| 44655 | 15.4 | 3.87 | -5 | 53 | 43 | 56 | 0.00 | -69 | 7 | 06/27/2025 04:30 AM |
| 44654 | 15.4 | 3.87 | -5 | 52 | 44 | 54 | 0.00 | -69 | 8 | 06/27/2025 04:15 AM |
| 44653 | 15.5 | 3.94 | -5 | 52 | 44 | 54 | 0.00 | -69 | 8 | 06/27/2025 04:00 AM |
| 44652 | 15.4 | 3.88 | -5 | 52 | 44 | 54 | 0.00 | -71 | 8 | 06/27/2025 03:45 AM |
| 44651 | 15.4 | 3.88 | -5 | 52 | 44 | 55 | 0.00 | -69 | 9 | 06/27/2025 03:30 AM |
| 44650 | 15.4 | 3.94 | -5 | 53 | 44 | 56 | 0.00 | -69 | 8 | 06/27/2025 03:15 AM |
| 44649 | 15.4 | 3.88 | -5 | 52 | 44 | 55 | 0.00 | -68 | 9 | 06/27/2025 03:00 AM |